Location: Unspecified
(0.0000°N, 0.0000°E)
Time: 00:13:54
(UTC+00:00)

NOSS 3-2 (C) - Pass Details

Date: 12 June 2023
Orbit: 728 x 1484 km, 63.4° (Epoch: 24 September)

Event Time Altitude Azimuth Distance (km) Brightness Sun altitude
Rises 03:19:42 0° 335° (NNW) 4,443 7.0 -36.3°
Reaches altitude 10° 03:22:32 10° 334° (NNW) 3,528 6.4 -35.6°
Maximum altitude 03:31:30 82° 248° (WSW) 1,499 4.2 -33.7°
Drops below altitude 10° 03:40:32 10° 161° (SSE) 3,556 6.3 -31.7°
Sets 03:43:24 0° 159° (SSE) 4,480 6.9 -31.0°
